Location: Cicognara
(44.9500°N, 10.4667°E)
Time: 06:38:33
(UTC+00:00)

Cosmos 1703 - Pass Details

Date: 20 June 2021
Orbit: 522 x 539 km, 82.5° (Epoch: 28 July)

Event Time Altitude Azimuth Distance (km) Brightness Sun altitude
Exits shadow 22:08:55 48° 117° (ESE) 714 3.5 -19.7°
Maximum altitude 22:09:20 50° 94° (E) 691 3.6 -19.7°
Drops below altitude 10° 22:13:11 10° 19° (NNE) 1,808 6.7 -19.9°
Sets 22:15:24 0° 14° (NNE) 2,706 7.9 -20.0°
